Meteo Giornale » Osservazioni meteo Italia » Roma-Ciampino

ore: 11:50 - Osservazioni Meteo Roma-Ciampino
Lat. 41° 47' N Lon. 12° 35' E Alt. 129 metri s.l.m.

poco_nuvoloso Europe/Rome

27 °C

Poco Nuvoloso

Temp. 24 Ore

22 °C

29 °C

Sud

16.7 Km/h

Dew point 17 °C

Umidità 54 %

Visibilità  10 Km

Il sole sorge alle ore 05:56

Il sole tramonta alle ore 20:36

Data e Ora Cielo e Fenomeni T °C DP °C Um. % Pres. hPa Vis. km Vento km/h
Oggi h: 11:50 poco_nuvoloso Poco Nuvoloso 27 17 54 1005 10 S 16.7
Oggi h: 11:20 nuvoloso Nuvoloso 27 16 50 1005 10 S 16.7
Oggi h: 10:50 nuvoloso Nuvoloso 27 17 54 1005 10 S 16.7
Oggi h: 10:20 nuvoloso Nuvoloso 26 16 54 1005 10 S/SE 13
Oggi h: 09:50 nuvoloso Nuvoloso 26 16 54 1005 10 S/SE 14.8
Oggi h: 09:20 poco_nuvoloso Poco Nuvoloso 25 17 61 1005 10 S/SE 11.1
Oggi h: 08:50 nuvoloso Nuvoloso 24 17 64 1005 10 S/SE 9.3
Oggi h: 08:20 nuvoloso Nuvoloso 24 18 69 1005 10 S 7.4
Oggi h: 07:50 poco_nuvoloso Poco Nuvoloso 23 18 73 1005 10 S 7.4
Oggi h: 07:20 nuvoloso Nuvoloso 23 19 78 1005 10 S/SE 9.3
Oggi h: 06:50 poco_nuvoloso Poco Nuvoloso 22 19 83 1005 9 N 5.5
Oggi h: 06:20 poco_nuvoloso Poco Nuvoloso 22 19 83 1005 10 N 5.5
Oggi h: 05:50 nuvoloso Nuvoloso 22 19 83 1005 10 S 9.3
Oggi h: 05:20 molto_nuvoloso Molto Nuvoloso 22 19 83 1005 10 N 5.5
Oggi h: 04:50 molto_nuvoloso Molto Nuvoloso 22 19 83 1005 10 S/SO 7.4
Oggi h: 03:50 nuvoloso Nuvoloso 23 20 83 1006 10 N 5.5
Oggi h: 03:20 nuvoloso Nuvoloso 23 20 83 1006 10 S 9.3
Oggi h: 02:50 nuvoloso Nuvoloso 23 19 78 1006 10 SE 9.3
Oggi h: 02:20 poco_nuvoloso Poco Nuvoloso 23 19 78 1006 10 S/SE 11.1
Oggi h: 01:50 poco_nuvoloso Poco Nuvoloso 23 19 78 1006 10 S 9.3
Oggi h: 01:20 poco_nuvoloso Poco Nuvoloso 23 19 78 1007 10 S 9.3
Oggi h: 00:50 molto_nuvoloso Molto Nuvoloso 23 19 78 1007 10 S 9.3
Oggi h: 00:20 molto_nuvoloso Molto Nuvoloso 23 18 73 1007 10 S 7.4
Ieri h: 23:50 molto_nuvoloso Molto Nuvoloso 23 18 73 1007 10 S 9.3
Ieri h: 23:20 sereno Sereno 24 19 73 1007 10 S/SO 13
Ieri h: 22:50 molto_nuvoloso Molto Nuvoloso 24 19 73 1008 10 S 9.3
Ieri h: 22:20 poco_nuvoloso Poco Nuvoloso 24 19 73 1008 10 S/SO 9.3
Ieri h: 21:50 poco_nuvoloso Poco Nuvoloso 24 19 73 1007 10 S/SO 9.3
Ieri h: 21:20 molto_nuvoloso Molto Nuvoloso 24 19 73 1007 10 S/SO 9.3
Ieri h: 20:50 molto_nuvoloso Molto Nuvoloso 24 19 73 1007 10 N 11.1
Ieri h: 20:20 molto_nuvoloso Molto Nuvoloso 25 19 69 1007 10 SO 11.1
Ieri h: 19:50 nuvoloso Nuvoloso 25 19 69 1006 10 SO 13
Ieri h: 19:20 poco_nuvoloso Poco Nuvoloso 27 19 61 1007 10 SO 11.1
Ieri h: 18:50 nuvoloso Nuvoloso 28 19 58 1007 10 SO 13
Ieri h: 18:20 poco_nuvoloso Poco Nuvoloso 28 18 54 1006 10 S/SO 11.1
Ieri h: 17:50 nuvoloso Nuvoloso 27 18 57 1007 10 SO 13
Ieri h: 17:20 molto_nuvoloso Molto Nuvoloso 28 19 58 1007 10 SO 13
Ieri h: 16:50 molto_nuvoloso Molto Nuvoloso 28 19 58 1007 10 S/SO 14.8
Ieri h: 16:20 nuvoloso Nuvoloso 29 18 51 1007 10 S/SO 16.7
Ieri h: 15:50 nuvoloso Nuvoloso 28 18 54 1008 10 S/SO 14.8
Ieri h: 15:20 nuvoloso Nuvoloso 29 17 48 1008 10 S/SO 16.7
Ieri h: 14:50 nuvoloso Nuvoloso 28 17 51 1008 10 SO 16.7
Ieri h: 14:20 nuvoloso Nuvoloso 29 19 54 1008 10 S/SO 16.7
Ieri h: 13:50 molto_nuvoloso Molto Nuvoloso 29 19 54 1009 10 O/SO 16.7
Ieri h: 13:20 molto_nuvoloso Molto Nuvoloso 29 18 51 1009 10 SO 18.5
Ieri h: 12:50 nuvoloso Nuvoloso 29 19 54 1009 10 S/SO 18.5